Theta_e
278 278 277 277 277 278 277 277 277 277 277 276 276 276 276 275 276 277 277 277 276 276 276 275 276 278 278 279 280 280 280 280 277 280 284 287 287 287 288 289 288 292 294
277 276 276 276 276 275 275 275 275 275 275 274 274 273 273 273 274 274 275 275 274 273 274 274 274 277 277 278 279 279 280 281 280 278 282 284 285 287 287 286 286 287 286
275 275 274 274 273 273 273 273 273 272 272 272 271 271 271 271 271 272 273 273 273 273 274 274 274 275 275 277 278 279 280 282 281 280 280 284 285 286 285 285 285 284 285
273 272 272 272 271 271 271 271 270 270 269 269 269 269 269 269 269 270 271 272 272 273 273 274 274 275 276 276 277 278 280 280 281 281 282 283 283 283 285 282 281 283 282
271 270 270 270 270 269 269 268 268 267 267 267 267 267 267 268 269 270 271 271 271 271 273 274 274 275 277 277 277 278 279 280 280 281 281 281 281 280 280 281 281 281 281
269 268 268 268 268 267 266 265 266 265 265 266 266 266 266 267 270 271 271 271 272 271 272 273 275 276 277 279 281 283 283 280 280 281 281 280 281 280 281 280 280 279 277
267 267 267 266 265 264 264 264 263 264 265 264 265 265 265 266 270 272 273 272 272 272 273 274 274 276 277 278 280 283 284 285 286 283 281 281 281 282 282 281 281 280 279
266 266 266 264 263 263 262 262 263 264 263 264 263 265 265 266 270 272 273 272 272 273 274 275 276 276 278 279 280 282 282 282 282 284 283 282 282 282 282 282 281 280 279
266 265 264 263 262 262 261 262 263 263 263 263 264 264 264 265 270 272 273 272 272 273 275 276 277 277 279 282 281 281 281 281 283 284 284 284 284 284 284 282 278 276 275
265 265 264 263 262 261 262 263 263 263 263 264 264 264 265 265 270 272 273 273 271 273 275 276 278 277 280 281 280 280 277 279 279 280 281 283 283 283 284 282 280 276 277
266 265 264 263 262 263 263 263 263 263 264 263 264 265 266 267 268 273 274 273 273 273 274 274 275 278 280 281 283 281 280 280 280 279 280 280 280 281 281 281 281 281 277
264 263 262 262 263 264 263 263 263 264 263 263 263 264 267 268 270 272 274 275 275 272 272 272 273 278 280 282 282 282 282 281 280 279 279 279 279 278 277 276 276 277 277
261 260 262 263 263 263 263 263 263 263 263 263 263 264 265 267 268 271 273 274 274 271 272 273 274 276 277 278 282 281 281 279 279 278 277 275 274 275 276 275 274 273 272
260 261 262 263 263 263 263 264 263 262 262 262 263 263 264 266 267 268 271 271 272 271 272 270 272 274 275 275 276 278 277 279 278 276 275 275 276 275 273 273 272 271 270
260 261 262 262 262 262 263 263 263 263 264 264 264 265 264 264 266 271 270 270 270 270 268 267 268 268 269 269 271 272 273 274 274 275 274 273 273 273 272 271 270 270 268
259 261 261 261 261 262 261 261 265 266 267 268 268 267 267 269 270 271 271 271 271 271 265 264 265 266 266 267 267 269 268 268 269 271 271 271 271 270 270 270 269 267 267
258 259 260 260 261 260 260 260 258 261 265 266 266 267 268 268 269 270 270 270 268 268 263 263 263 264 264 265 265 266 266 267 268 268 267 267 267 267 267 268 268 268 267
258 259 260 260 260 260 260 258 259 258 257 259 263 265 266 267 268 269 269 266 261 262 262 262 262 262 263 263 264 264 264 265 265 265 264 264 263 263 263 264 265 263 264
258 260 260 260 260 259 259 260 259 259 258 258 259 261 263 265 267 266 266 262 260 260 260 261 261 262 262 262 262 263 263 263 260 261 262 261 261 261 260 261 261 260 259
260 260 260 260 259 259 259 259 258 258 257 257 258 258 260 262 260 260 261 261 261 261 260 260 261 261 261 261 261 262 261 262 262 261 261 261 261 260 259 258 258 259 259
260 260 259 260 259 259 259 258 257 257 257 257 258 259 265 261 259 259 259 259 260 260 260 260 260 260 261 261 261 261 260 261 260 259 259 259 259 258 258 259 258 257 257
260 260 260 259 259 259 258 257 258 257 257 257 258 259 263 259 259 259 259 260 260 260 261 261 260 260 260 260 260 259 259 259 259 259 259 258 257 258 258 258 257 257 257
261 261 260 259 259 258 258 258 258 258 257 258 258 258 259 259 259 259 259 260 260 260 260 260 260 259 259 259 260 260 259 258 259 259 258 257 257 258 258 259 258 258 258
261 260 259 259 258 258 258 257 258 258 258 258 258 258 258 259 259 259 259 260 260 260 260 260 260 259 259 258 259 259 260 259 258 258 257 257 257 257 258 257 258 257 258
260 259 258 258 258 257 257 258 258 258 258 258 258 258 259 259 259 259 260 260 260 260 260 260 260 260 259 258 258 257 258 260 259 258 258 257 256 255 257 258 257 258 259
259 259 259 259 258 258 258 257 257 258 257 258 258 258 258 259 259 259 260 260 260 260 260 260 260 260 260 259 258 259 259 260 258 257 257 258 258 257 258 258 258 259 260
Wind_Speed
14 15 15 15 16 16 15 16 17 18 17 17 18 18 19 18 20 18 16 16 16 16 16 16 19 18 13 12 12 12 13 12 14 13 11 10 13 7 6 4 5 8 10
14 15 16 17 18 17 17 18 18 18 18 19 19 19 19 19 20 19 18 15 16 17 18 19 19 15 17 15 13 17 14 15 13 16 13 10 10 5 3 1 2 3 4
15 15 17 17 17 18 19 18 18 19 19 19 19 19 19 19 20 19 19 17 17 17 17 17 18 18 17 14 16 15 13 13 12 11 12 8 6 4 3 2 2 3 5
15 15 17 17 18 18 19 19 19 18 19 19 18 18 19 18 19 19 19 17 16 16 18 19 19 18 18 18 16 17 16 11 12 11 7 7 1 2 1 4 2 2 4
13 12 15 16 18 18 19 19 19 19 18 19 18 18 19 17 14 18 17 17 17 19 19 17 18 19 28 26 16 17 17 13 11 10 7 6 3 2 2 2 3 3 6
11 12 12 13 14 16 17 19 18 18 18 18 17 18 18 14 27 28 24 16 16 17 17 17 17 20 21 30 31 33 26 14 14 6 5 5 3 4 4 4 4 3 3
11 11 12 12 15 14 15 16 15 17 17 17 17 17 16 17 27 27 26 15 15 16 16 15 15 12 18 18 24 25 24 21 17 5 6 5 3 5 5 4 2 2 2
10 11 12 13 14 14 14 14 14 14 15 14 15 15 15 15 28 28 28 16 15 17 17 17 14 14 15 17 15 9 4 5 6 5 3 4 4 5 5 3 5 5 6
10 12 12 13 14 14 14 15 14 14 14 13 14 15 16 16 27 27 23 16 15 16 14 15 12 12 18 28 16 3 4 5 5 9 7 6 6 7 7 5 4 4 3
12 13 13 13 13 14 14 14 14 13 14 12 15 15 17 17 23 26 22 12 14 12 11 12 17 17 26 26 12 3 3 4 3 4 3 4 4 4 10 4 4 3 3
15 14 13 12 13 13 13 12 13 13 13 13 13 14 15 14 15 25 26 13 13 11 10 11 11 28 29 27 19 2 2 5 4 2 5 4 4 4 3 3 4 2 3
15 14 14 13 12 11 13 12 13 13 13 13 13 13 11 13 20 21 27 27 26 12 11 11 14 29 29 21 13 6 8 8 3 3 3 4 5 6 6 6 7 6 5
13 13 13 13 13 13 12 13 11 12 11 11 11 12 12 11 12 25 27 27 22 15 12 20 26 25 25 20 5 1 7 4 4 3 6 7 6 5 5 5 5 4 4
13 14 13 12 12 11 10 9 9 10 11 11 12 12 12 11 11 12 11 12 16 13 17 12 17 18 19 18 12 11 8 6 6 6 6 5 4 4 5 4 3 2 1
13 12 12 10 12 12 10 10 10 11 13 13 12 12 12 11 12 22 19 11 11 14 13 9 8 9 10 10 10 11 10 8 8 6 5 5 5 4 4 3 3 2 2
13 10 10 10 10 10 11 12 16 21 24 25 24 18 11 21 25 25 25 23 23 20 7 7 7 8 8 8 9 8 8 9 8 6 5 5 4 4 3 2 1 1 1
12 13 10 10 10 10 10 11 13 16 25 23 22 24 23 22 24 25 22 21 19 13 5 6 7 7 7 7 7 7 6 6 6 5 4 3 3 2 1 1 1 1 1
10 13 9 9 10 10 10 11 10 12 13 13 16 21 20 23 24 23 21 14 7 8 6 6 6 6 6 6 6 5 5 5 4 4 3 3 2 2 2 2 2 2 2
9 8 9 9 9 11 10 10 10 11 11 11 13 14 13 23 23 21 18 6 6 6 6 6 5 5 5 5 5 5 4 4 3 3 3 2 1 1 2 2 2 2 2
8 12 10 9 9 10 9 10 10 10 11 10 10 11 12 12 9 8 7 7 7 5 5 6 6 5 5 5 4 4 4 3 3 2 2 2 2 2 1 2 2 2 2
8 8 11 9 9 9 9 10 10 10 10 10 10 11 23 11 9 8 8 7 7 7 6 5 5 5 5 5 4 5 4 4 3 2 2 2 2 2 2 2 2 3 3
8 8 9 9 9 9 9 10 9 10 10 11 11 11 23 8 8 8 8 7 7 7 6 7 5 5 5 5 5 5 5 5 3 2 3 2 2 3 3 3 3 3 3
8 9 9 9 9 11 10 9 10 10 10 11 11 11 10 9 9 9 9 8 8 7 7 6 7 6 5 5 5 6 6 6 4 2 2 2 3 3 3 5 4 4 4
8 9 9 9 8 9 9 10 10 12 11 11 10 10 10 10 10 11 10 9 8 8 7 7 7 9 8 7 6 6 7 6 4 4 5 5 5 4 4 5 5 5 5
7 8 9 9 9 9 11 10 11 11 10 10 10 10 11 10 10 10 10 9 8 8 9 8 7 9 11 11 10 10 10 12 8 7 5 6 7 7 6 6 6 6 9
7 8 8 8 9 9 9 10 11 11 11 10 11 11 11 11 11 10 10 10 9 9 11 9 9 12 12 10 12 12 12 14 11 11 8 8 8 7 7 9 11 8 10
Wind_Direction
335 330 325 322 319 319 317 318 319 315 313 317 310 309 306 308 305 296 293 288 288 292 292 291 289 284 277 276 280 277 276 273 277 282 280 279 280 270 271 291 324 256 240
333 331 326 325 326 323 321 323 321 320 319 320 318 314 311 306 303 306 296 298 297 294 293 286 280 280 281 279 278 276 275 272 274 279 283 282 273 251 238 155 23 3 52
334 330 329 328 328 326 326 326 324 327 319 317 321 316 316 315 313 311 307 305 298 293 291 292 291 291 288 283 279 280 282 277 270 267 272 273 290 202 182 160 125 66 53
331 332 330 331 331 330 328 328 325 323 323 321 320 318 318 314 312 307 302 300 300 299 292 286 283 281 279 282 283 281 280 282 271 271 249 270 181 354 160 135 131 73 73
330 328 326 327 329 327 329 326 325 325 323 322 321 320 315 314 308 309 302 300 302 292 286 287 283 281 281 279 275 273 275 273 269 265 256 235 167 158 95 46 86 97 91
322 321 321 326 322 328 324 323 327 324 325 322 323 315 320 315 315 309 303 292 293 293 288 285 281 279 277 279 280 278 271 271 260 230 248 237 171 146 138 144 134 149 132
321 319 325 321 325 323 320 320 320 321 320 322 317 320 311 312 309 313 307 300 299 295 293 290 287 283 281 277 283 278 273 257 241 233 243 231 197 156 152 159 143 126 82
315 324 324 326 320 318 318 317 317 319 321 321 312 315 314 313 318 316 318 315 304 296 292 288 281 282 287 286 281 267 110 54 11 207 142 82 74 121 152 149 138 99 102
328 325 328 325 319 319 317 316 320 320 319 312 318 315 311 308 314 320 321 309 302 302 301 307 309 296 308 320 317 108 108 90 75 48 81 59 193 165 134 114 116 118 95
330 330 327 322 320 315 313 318 320 313 310 318 312 309 307 303 312 322 323 317 314 309 319 324 332 337 330 325 327 78 89 100 100 126 121 85 86 141 147 102 142 153 109
329 328 323 325 317 312 315 318 312 313 310 307 309 310 304 315 318 325 329 330 325 331 348 346 339 331 330 324 326 210 145 121 131 119 109 105 110 93 66 69 59 38 112
328 322 320 316 314 315 319 314 314 313 312 314 315 313 319 321 325 328 336 335 341 346 348 339 328 332 332 334 325 293 184 140 143 129 125 117 105 83 59 53 45 52 45
319 314 314 311 314 322 316 315 314 317 315 317 315 317 320 325 324 326 329 336 344 345 341 334 332 341 344 345 321 320 146 127 132 133 90 69 69 81 101 96 74 75 62
314 316 312 317 320 316 314 309 312 311 314 309 312 315 316 319 322 316 325 328 336 344 344 334 334 349 358 4 22 43 47 69 80 79 81 83 87 82 71 29 67 55 84
316 313 317 319 318 314 311 312 309 307 305 316 313 314 317 319 309 320 326 337 335 330 352 333 344 356 1 5 17 28 34 41 53 58 68 70 72 68 76 50 44 43 49
315 319 318 318 312 313 313 313 310 314 319 320 321 321 320 315 323 327 322 334 343 339 351 344 354 358 4 6 9 19 30 27 21 33 46 41 46 45 50 97 64 25 5
314 313 314 309 315 314 315 316 315 319 320 325 328 331 326 331 331 324 338 342 341 352 345 350 352 355 357 2 6 12 16 18 1 24 29 31 22 22 41 337 9 339 284
303 306 304 316 310 310 313 309 306 314 318 319 328 327 336 334 330 336 337 359 339 343 345 344 344 344 348 350 352 359 360 350 12 9 2 30 8 4 351 341 335 348 328
312 305 313 307 304 308 301 307 308 310 312 312 317 326 330 325 328 345 344 337 331 329 334 331 332 334 333 336 334 333 342 338 341 319 330 352 355 353 327 343 326 292 289
308 305 314 310 305 309 311 311 312 315 313 312 315 318 319 316 343 334 331 326 322 317 319 318 316 319 318 317 317 320 312 315 317 315 324 336 326 310 292 269 239 253 251
309 313 312 302 310 311 311 314 312 307 309 310 310 313 320 343 321 318 321 317 315 312 312 303 306 301 299 296 300 295 292 296 298 276 272 281 286 271 261 260 255 235 229
313 308 314 316 313 313 314 306 307 307 308 310 310 313 324 320 313 312 310 308 305 300 296 295 285 278 286 289 291 290 285 280 277 270 254 233 236 254 238 237 244 256 251
304 319 318 317 314 313 313 310 313 311 310 310 311 313 317 314 311 308 306 304 300 295 291 286 285 280 270 264 257 253 260 261 261 262 261 260 255 251 240 253 244 246 244
321 320 318 315 315 315 314 316 313 313 313 312 313 312 311 309 307 305 302 301 298 293 287 281 273 270 272 260 261 258 254 245 244 250 239 246 253 253 243 243 249 249 254
322 320 317 314 315 316 316 317 316 315 315 313 313 311 310 307 305 304 302 299 295 291 286 280 270 266 262 259 249 245 251 260 249 232 230 231 239 242 248 251 249 253 254
321 317 313 313 316 317 317 316 316 315 315 314 313 311 308 307 305 303 302 298 294 292 291 282 273 267 263 258 254 251 248 247 241 231 227 229 233 236 236 239 243 244 250